"read_dt","SO2 (ppb)","flags","PMT voltage (V)","lamp voltage (V)","lamp intensity (Hz)","internal temp (C)","react chamber temp (C)","sample flow (l/min)","pres (mmHg)","SO2 bkg (ppb)","SO2 coefficient"
2018-07-21 00:00:00,-2.555E-01,4C000000*,-703.0,967.427,90,25.7,44.9,0.406,735.7,2.2,1.050*
2018-07-21 00:01:00,-3.427E-01,4C000000*,-703.0,967.831,89,25.7,45.2,0.406,735.4,2.2,1.050*
2018-07-21 00:02:00,-2.781E-01,4C000000*,-702.3,967.427,91,25.6,44.8,0.406,735.4,2.2,1.050*
2018-07-21 00:03:00,-2.887E-01,4C000000*,-702.6,967.831,90,25.7,45.0,0.406,735.4,2.2,1.050*
2018-07-21 00:04:00,-3.397E-01,4C000000*,-703.0,968.639,89,25.7,45.0,0.406,735.4,2.2,1.050*
2018-07-21 00:05:00,-2.928E-01,4C000000*,-702.6,968.235,90,25.7,44.8,0.406,735.7,2.2,1.050*
2018-07-21 00:06:00,-2.305E-01,4C000000*,-702.6,968.235,90,25.7,45.0,0.406,735.7,2.2,1.050*
2018-07-21 00:07:00,-2.622E-01,4C000000*,-703.0,967.427,90,25.7,45.0,0.406,735.4,2.2,1.050*
2018-07-21 00:08:00,-2.768E-01,4C000000*,-703.0,967.831,90,25.6,44.8,0.406,735.4,2.2,1.050*
2018-07-21 00:09:00,-2.895E-01,4C000000*,-703.0,967.427,89,25.6,45.0,0.406,735.7,2.2,1.050*
2018-07-21 00:10:00,-1.974E-01,4C000000*,-703.4,968.235,89,25.6,44.9,0.406,735.4,2.2,1.050*
2018-07-21 00:11:00,-3.560E-01,4C000000*,-703.0,967.427,90,25.7,44.9,0.406,735.4,2.2,1.050*
2018-07-21 00:12:00,-2.035E-01,4C000000*,-703.4,969.044,90,25.7,45.2,0.406,735.4,2.2,1.050*
2018-07-21 00:13:00,-3.450E-01,4C000000*,-703.0,967.831,90,25.6,44.8,0.406,735.7,2.2,1.050*
2018-07-21 00:14:00,-2.451E-01,4C000000*,-702.6,968.639,88,25.7,44.9,0.407,735.7,2.2,1.050*
2018-07-21 00:15:00,-3.605E-01,4C000000*,-703.0,967.831,90,25.7,45.1,0.406,735.4,2.2,1.050*
2018-07-21 00:16:00,-2.481E-01,4C000000*,-702.6,967.831,90,25.7,44.8,0.406,735.7,2.2,1.050*
2018-07-21 00:17:00,-2.411E-01,4C000000*,-703.0,968.235,91,25.7,44.8,0.406,735.7,2.2,1.050*
2018-07-21 00:18:00,-3.962E-01,4C000000*,-703.0,968.235,89,25.7,45.1,0.406,735.7,2.2,1.050*
2018-07-21 00:19:00,-1.882E-01,4C000000*,-703.0,967.427,89,25.6,44.8,0.406,735.4,2.2,1.050*
2018-07-21 00:20:00,-2.511E-01,4C000000*,-703.0,967.831,90,25.7,45.0,0.406,735.4,2.2,1.050*
2018-07-21 00:21:00,-2.125E-01,4C000000*,-703.0,969.448,90,25.7,45.0,0.406,735.4,2.2,1.050*
2018-07-21 00:22:00,-2.260E-01,4C000000*,-702.6,968.639,90,25.6,44.8,0.406,735.7,2.2,1.050*
2018-07-21 00:23:00,-2.906E-01,4C000000*,-702.6,969.044,88,25.7,45.0,0.406,735.7,2.2,1.050*
2018-07-21 00:24:00,-2.037E-01,4C000000*,-703.4,967.022,89,25.7,45.0,0.406,735.4,2.2,1.050*
2018-07-21 00:25:00,-2.981E-01,4C000000*,-703.0,967.022,91,25.7,44.8,0.406,735.7,2.2,1.050*
2018-07-21 00:26:00,-3.161E-01,4C000000*,-702.6,967.831,89,25.7,45.0,0.406,735.7,2.2,1.050*
2018-07-21 00:27:00,-2.561E-01,4C000000*,-702.6,967.831,89,25.7,44.8,0.406,735.7,2.2,1.050*
2018-07-21 00:28:00,-3.627E-01,4C000000*,-702.6,967.831,89,25.7,44.8,0.407,735.7,2.2,1.050*
2018-07-21 00:29:00,-3.057E-01,4C000000*,-703.0,969.044,89,25.6,45.2,0.407,735.7,2.2,1.050*
2018-07-21 00:30:00,-2.489E-01,4C000000*,-702.6,967.022,90,25.7,44.8,0.406,735.7,2.2,1.050*
2018-07-21 00:31:00,-2.589E-01,4C000000*,-703.0,967.427,90,25.7,45.0,0.406,735.7,2.2,1.050*
2018-07-21 00:32:00,-3.079E-01,4C000000*,-703.0,967.427,90,25.6,45.0,0.406,735.7,2.2,1.050*
2018-07-21 00:33:00,-3.218E-01,4C000000*,-702.6,967.427,90,25.7,44.8,0.407,735.7,2.2,1.050*
2018-07-21 00:34:00,-2.080E-01,4C000000*,-702.6,968.639,90,25.7,45.0,0.407,735.7,2.2,1.050*
2018-07-21 00:35:00,-2.914E-01,4C000000*,-703.0,967.831,88,25.6,45.0,0.406,735.4,2.2,1.050*
2018-07-21 00:36:00,-3.356E-01,4C000000*,-703.0,967.831,90,25.7,44.9,0.407,735.7,2.2,1.050*
2018-07-21 00:37:00,-3.581E-01,4C000000*,-703.0,968.235,90,25.6,45.0,0.406,735.7,2.2,1.050*
2018-07-21 00:38:00,-3.259E-01,4C000000*,-703.0,967.022,89,25.7,44.8,0.406,735.7,2.2,1.050*
2018-07-21 00:39:00,-2.229E-01,4C000000*,-702.6,968.639,90,25.6,44.9,0.406,735.7,2.2,1.050*
2018-07-21 00:40:00,-3.146E-01,4C000000*,-702.6,967.427,89,25.6,45.2,0.406,735.7,2.2,1.050*
2018-07-21 00:41:00,-3.393E-01,4C000000*,-702.6,967.427,90,25.6,44.8,0.406,735.4,2.2,1.050*
2018-07-21 00:42:00,-2.677E-01,4C000000*,-703.0,967.427,90,25.6,45.0,0.407,735.7,2.2,1.050*
2018-07-21 00:43:00,-2.942E-01,4C000000*,-703.0,969.044,90,25.7,45.0,0.406,735.7,2.2,1.050*
2018-07-21 00:44:00,-2.725E-01,4C000000*,-703.0,967.427,89,25.6,44.8,0.406,735.7,2.2,1.050*
2018-07-21 00:45:00,-3.010E-01,4C000000*,-702.6,967.831,90,25.6,45.0,0.406,735.7,2.2,1.050*
2018-07-21 00:46:00,-2.422E-01,4C000000*,-702.3,968.235,89,25.6,45.0,0.406,735.7,2.2,1.050*
2018-07-21 00:47:00,-2.805E-01,4C000000*,-702.6,967.831,90,25.6,44.8,0.406,735.7,2.2,1.050*
2018-07-21 00:48:00,-2.673E-01,4C000000*,-702.6,969.044,90,25.6,45.0,0.406,735.7,2.2,1.050*
2018-07-21 00:49:00,-1.493E-01,4C000000*,-702.6,968.235,90,25.6,44.9,0.406,735.7,2.2,1.050*
2018-07-21 00:50:00,-2.137E-01,4C000000*,-703.0,966.618,89,25.6,44.9,0.406,735.7,2.2,1.050*
2018-07-21 00:51:00,-2.830E-01,4C000000*,-702.6,967.427,88,25.7,45.2,0.407,735.7,2.2,1.050*
2018-07-21 00:52:00,-3.021E-01,4C000000*,-702.6,967.831,90,25.6,44.7,0.406,735.7,2.2,1.050*
2018-07-21 00:53:00,-3.640E-01,4C000000*,-703.0,967.831,90,25.6,44.9,0.406,735.4,2.2,1.050*
2018-07-21 00:54:00,-2.615E-01,4C000000*,-702.3,967.022,89,25.6,45.0,0.406,735.7,2.2,1.050*
2018-07-21 00:55:00,-3.202E-01,4C000000*,-703.0,967.831,90,25.7,44.8,0.406,735.7,2.2,1.050*
2018-07-21 00:56:00,-2.197E-01,4C000000*,-702.6,967.427,91,25.6,45.0,0.406,735.7,2.2,1.050*
2018-07-21 00:57:00,-2.982E-01,4C000000*,-702.3,967.427,89,25.6,45.1,0.406,735.7,2.2,1.050*
2018-07-21 00:58:00,-3.393E-01,4C000000*,-703.0,967.831,89,25.6,44.8,0.406,735.7,2.2,1.050*
2018-07-21 00:59:00,-3.077E-01,4C000000*,-703.4,969.448,90,25.5,45.0,0.406,735.4,2.2,1.050*
2018-07-21 01:00:00,-2.861E-01,4C000000*,-702.6,969.448,90,25.7,44.8,0.406,735.4,2.2,1.050*
2018-07-21 01:01:00,-2.998E-01,4C000000*,-703.4,968.639,90,25.6,44.8,0.406,735.4,2.2,1.050*
2018-07-21 01:02:00,-2.575E-01,4C000000*,-702.6,968.639,90,25.6,45.2,0.406,735.4,2.2,1.050*
2018-07-21 01:03:00,-2.544E-01,4C000000*,-702.3,967.427,88,25.6,44.8,0.406,735.7,2.2,1.050*
2018-07-21 01:04:00,-2.458E-01,4C000000*,-702.6,967.022,90,25.6,44.9,0.406,735.4,2.2,1.050*
2018-07-21 01:05:00,-2.844E-01,4C000000*,-703.0,968.235,91,25.6,45.0,0.407,735.4,2.2,1.050*
2018-07-21 01:06:00,-2.471E-01,4C000000*,-703.4,967.022,90,25.5,44.8,0.406,735.4,2.2,1.050*
2018-07-21 01:07:00,-2.615E-01,4C000000*,-702.3,967.427,90,25.5,45.0,0.406,735.7,2.2,1.050*
2018-07-21 01:08:00,-3.407E-01,4C000000*,-703.4,967.022,90,25.6,45.1,0.406,735.4,2.2,1.050*
2018-07-21 01:09:00,-2.573E-01,4C000000*,-703.0,967.831,90,25.6,44.8,0.406,735.4,2.2,1.050*
2018-07-21 01:10:00,-2.612E-01,4C000000*,-703.4,967.831,90,25.6,45.1,0.406,735.4,2.2,1.050*
2018-07-21 01:11:00,-2.957E-01,4C000000*,-702.6,967.022,90,25.6,44.9,0.406,735.4,2.2,1.050*
2018-07-21 01:12:00,-3.005E-01,4C000000*,-702.6,967.831,89,25.6,44.9,0.406,735.7,2.2,1.050*
2018-07-21 01:13:00,-2.203E-01,4C000000*,-703.0,967.022,90,25.6,45.2,0.407,735.7,2.2,1.050*
2018-07-21 01:14:00,-2.162E-01,4C000000*,-703.0,967.022,90,25.5,44.7,0.406,735.7,2.2,1.050*
2018-07-21 01:15:00,-3.754E-01,4C000000*,-703.0,966.618,89,25.6,44.9,0.406,735.7,2.2,1.050*
2018-07-21 01:16:00,-2.869E-01,4C000000*,-703.0,967.022,90,25.6,45.0,0.406,735.4,2.2,1.050*
2018-07-21 01:17:00,-2.862E-01,4C000000*,-702.6,967.831,90,25.6,44.8,0.406,735.7,2.2,1.050*
2018-07-21 01:18:00,-2.706E-01,4C000000*,-702.6,968.639,89,25.6,45.0,0.406,735.4,2.2,1.050*
2018-07-21 01:19:00,-2.603E-01,4C000000*,-702.6,966.214,90,25.6,45.1,0.406,735.4,2.2,1.050*
2018-07-21 01:20:00,-1.721E-01,4C000000*,-703.4,965.809,89,25.6,44.8,0.406,735.4,2.2,1.050*
2018-07-21 01:21:00,-3.017E-01,4C000000*,-702.6,967.427,89,25.6,45.0,0.406,735.7,2.2,1.050*
2018-07-21 01:22:00,-3.007E-01,4C000000*,-702.6,967.831,90,25.6,44.9,0.406,735.7,2.2,1.050*
2018-07-21 01:23:00,-3.185E-01,4C000000*,-702.3,968.639,88,25.7,44.8,0.407,735.4,2.2,1.050*
2018-07-21 01:24:00,-2.643E-01,4C000000*,-702.3,967.022,90,25.7,45.2,0.406,735.4,2.2,1.050*
2018-07-21 01:25:00,-3.502E-01,4C000000*,-703.0,967.022,89,25.7,44.8,0.406,735.7,2.2,1.050*
2018-07-21 01:26:00,-2.540E-01,4C000000*,-702.6,968.639,90,25.7,44.9,0.406,735.4,2.2,1.050*
2018-07-21 01:27:00,-2.661E-01,4C000000*,-703.4,967.427,91,25.7,45.1,0.406,735.4,2.2,1.050*
2018-07-21 01:28:00,-3.496E-01,4C000000*,-703.0,967.831,90,25.6,44.8,0.406,735.4,2.2,1.050*
2018-07-21 01:29:00,-3.041E-01,4C000000*,-703.0,968.235,90,25.7,45.0,0.406,735.4,2.2,1.050*
2018-07-21 01:30:00,-2.983E-01,4C000000*,-703.0,969.044,89,25.7,45.0,0.406,735.4,2.2,1.050*
2018-07-21 01:31:00,-2.620E-01,4C000000*,-702.6,967.022,90,25.7,44.8,0.406,735.4,2.2,1.050*
2018-07-21 01:32:00,-3.073E-01,4C000000*,-703.0,969.044,88,25.6,45.1,0.406,735.4,2.2,1.050*
2018-07-21 01:33:00,-2.721E-01,4C000000*,-703.0,968.235,90,25.6,44.9,0.406,735.7,2.2,1.050*
2018-07-21 01:34:00,-3.175E-01,4C000000*,-702.3,968.235,88,25.6,44.9,0.406,735.4,2.2,1.050*
2018-07-21 01:35:00,-3.537E-01,4C000000*,-703.0,967.427,90,25.6,45.1,0.406,735.4,2.2,1.050*
2018-07-21 01:36:00,-2.213E-01,4C000000*,-703.0,967.831,90,25.6,44.7,0.406,735.4,2.2,1.050*
2018-07-21 01:37:00,-1.903E-01,4C000000*,-702.6,967.022,90,25.6,44.9,0.406,735.7,2.2,1.050*
2018-07-21 01:38:00,-2.862E-01,4C000000*,-703.0,968.235,89,25.5,45.0,0.406,735.7,2.2,1.050*
2018-07-21 01:39:00,-2.756E-01,4C000000*,-703.0,966.618,89,25.5,44.8,0.406,735.7,2.2,1.050*
2018-07-21 01:40:00,-3.077E-01,4C000000*,-703.0,968.235,91,25.6,45.0,0.406,735.7,2.2,1.050*
2018-07-21 01:41:00,-2.460E-01,4C000000*,-702.6,968.235,89,25.5,45.1,0.406,735.4,2.2,1.050*
2018-07-21 01:42:00,-3.251E-01,4C000000*,-702.6,968.235,91,25.6,44.8,0.406,735.4,2.2,1.050*
2018-07-21 01:43:00,-3.271E-01,4C000000*,-702.6,968.235,90,25.6,45.1,0.406,735.4,2.2,1.050*
2018-07-21 01:44:00,-3.588E-01,4C000000*,-703.0,967.831,90,25.6,44.8,0.406,735.4,2.2,1.050*
2018-07-21 01:45:00,-2.760E-01,4C000000*,-703.0,967.831,89,25.5,44.9,0.406,735.7,2.2,1.050*
2018-07-21 01:46:00,-2.660E-01,4C000000*,-702.6,966.618,90,25.6,45.1,0.406,735.4,2.2,1.050*
2018-07-21 01:47:00,-3.221E-01,4C000000*,-702.6,968.235,90,25.6,44.7,0.406,735.7,2.2,1.050*
2018-07-21 01:48:00,-3.295E-01,4C000000*,-703.4,967.831,91,25.6,44.9,0.406,735.7,2.2,1.050*
2018-07-21 01:49:00,-2.884E-01,4C000000*,-703.4,968.639,89,25.6,45.0,0.406,735.4,2.2,1.050*
2018-07-21 01:50:00,-3.261E-01,4C000000*,-703.0,968.235,89,25.7,44.8,0.406,735.4,2.2,1.050*
2018-07-21 01:51:00,-2.659E-01,4C000000*,-702.6,968.639,89,25.7,45.0,0.406,735.4,2.2,1.050*
2018-07-21 01:52:00,-4.041E-01,4C000000*,-703.0,968.639,91,25.6,45.1,0.406,735.4,2.2,1.050*
2018-07-21 01:53:00,-3.015E-01,4C000000*,-702.6,968.639,89,25.6,44.8,0.406,735.7,2.2,1.050*
2018-07-21 01:54:00,-3.134E-01,4C000000*,-702.3,969.044,89,25.6,45.1,0.406,735.4,2.2,1.050*
2018-07-21 01:55:00,-2.817E-01,4C000000*,-703.0,967.831,88,25.7,44.9,0.406,735.4,2.2,1.050*
2018-07-21 01:56:00,-3.022E-01,4C000000*,-703.0,967.022,90,25.7,44.9,0.406,735.7,2.2,1.050*
2018-07-21 01:57:00,-3.468E-01,4C000000*,-702.6,968.235,90,25.7,45.2,0.406,735.7,2.2,1.050*
2018-07-21 01:58:00,-2.913E-01,4C000000*,-703.0,966.618,90,25.7,44.8,0.406,735.4,2.2,1.050*
2018-07-21 01:59:00,-2.870E-01,4C000000*,-703.0,967.831,88,25.7,44.9,0.406,735.1,2.2,1.050*
2018-07-21 02:00:00,-3.156E-01,4C000000*,-703.0,968.235,91,25.7,45.0,0.406,735.4,2.2,1.050*
2018-07-21 02:01:00,-4.008E-01,4C000000*,-702.6,967.022,89,25.8,44.8,0.406,735.4,2.2,1.050*
2018-07-21 02:02:00,-2.376E-01,4C000000*,-703.0,967.022,89,25.7,45.0,0.406,735.4,2.2,1.050*
2018-07-21 02:03:00,-2.968E-01,4C000000*,-703.0,967.427,91,25.7,45.1,0.406,735.1,2.2,1.050*
2018-07-21 02:04:00,-2.609E-01,4C000000*,-702.6,967.831,91,25.8,44.8,0.406,735.4,2.2,1.050*
2018-07-21 02:05:00,-3.576E-01,4C000000*,-703.4,967.427,90,25.8,45.0,0.406,735.4,2.2,1.050*
2018-07-21 02:06:00,-2.654E-01,4C000000*,-702.3,967.831,90,25.8,44.9,0.406,735.4,2.2,1.050*
2018-07-21 02:07:00,-2.612E-01,4C000000*,-703.0,967.831,89,25.7,44.8,0.407,735.4,2.2,1.050*
2018-07-21 02:08:00,-2.262E-01,4C000000*,-702.6,967.427,89,25.8,45.1,0.406,735.4,2.2,1.050*
2018-07-21 02:09:00,-3.156E-01,4C000000*,-703.0,967.831,90,25.8,44.8,0.406,735.4,2.2,1.050*
2018-07-21 02:10:00,-2.506E-01,4C000000*,-703.0,967.022,90,25.8,44.9,0.406,735.4,2.2,1.050*
2018-07-21 02:11:00,-2.999E-01,4C000000*,-702.6,968.639,89,25.8,45.1,0.406,735.4,2.2,1.050*
2018-07-21 02:12:00,-2.123E-01,4C000000*,-702.6,967.831,88,26.0,44.8,0.406,735.4,2.2,1.050*
2018-07-21 02:13:00,-2.956E-01,4C000000*,-703.0,967.022,91,26.1,45.0,0.406,735.4,2.2,1.050*
2018-07-21 02:14:00,-2.257E-01,4C000000*,-702.6,967.427,90,26.2,45.1,0.406,735.4,2.2,1.050*
2018-07-21 02:15:00,-2.204E-01,4C000000*,-703.0,966.618,91,26.3,44.8,0.406,735.4,2.2,1.050*
2018-07-21 02:16:00,-2.698E-01,4C000000*,-703.0,968.235,91,26.7,45.1,0.406,735.4,2.2,1.050*
2018-07-21 02:17:00,-3.112E-01,4C000000*,-702.6,967.831,91,26.7,44.9,0.406,735.4,2.2,1.050*
2018-07-21 02:18:00,-3.004E-01,4C000000*,-703.0,967.831,89,26.6,44.9,0.406,735.4,2.2,1.050*
2018-07-21 02:19:00,-2.947E-01,4C000000*,-703.0,968.235,89,26.6,45.1,0.406,735.1,2.2,1.050*
2018-07-21 02:20:00,-2.021E-01,4C000000*,-702.6,969.448,89,26.6,44.8,0.406,735.4,2.2,1.050*
2018-07-21 02:21:00,-2.586E-01,4C000000*,-703.0,968.639,90,26.6,44.9,0.406,735.4,2.2,1.050*
2018-07-21 02:22:00,-3.256E-01,4C000000*,-703.0,967.831,90,26.5,45.1,0.406,735.4,2.2,1.050*
2018-07-21 02:23:00,-3.044E-01,4C000000*,-703.0,968.639,90,26.5,44.8,0.407,735.4,2.2,1.050*
2018-07-21 02:24:00,-2.917E-01,4C000000*,-703.0,966.618,88,26.5,45.0,0.406,735.1,2.2,1.050*
2018-07-21 02:25:00,-3.439E-01,4C000000*,-703.0,969.044,90,26.4,45.1,0.406,735.4,2.2,1.050*
2018-07-21 02:26:00,-2.558E-01,4C000000*,-702.6,966.618,91,26.3,44.8,0.407,735.4,2.2,1.050*
2018-07-21 02:27:00,-2.967E-01,4C000000*,-703.0,968.235,90,26.2,45.1,0.406,735.4,2.2,1.050*
2018-07-21 02:28:00,-2.151E-01,4C000000*,-703.0,966.618,89,26.2,44.9,0.407,735.1,2.2,1.050*
2018-07-21 02:29:00,-2.497E-01,4C000000*,-702.6,967.831,89,26.2,44.8,0.406,735.1,2.2,1.050*
2018-07-21 02:30:00,-3.465E-01,4C000000*,-703.0,967.427,90,26.2,45.0,0.406,735.4,2.2,1.050*
2018-07-21 02:31:00,-3.803E-01,4C000000*,-703.0,967.427,90,26.2,44.8,0.406,735.4,2.2,1.050*
2018-07-21 02:32:00,-3.599E-01,4C000000*,-702.6,967.427,91,26.2,44.9,0.406,735.4,2.2,1.050*
2018-07-21 02:33:00,-2.753E-01,4C000000*,-703.0,968.639,90,26.2,45.1,0.406,735.4,2.2,1.050*
2018-07-21 02:34:00,-2.687E-01,4C000000*,-702.6,968.235,89,26.1,44.8,0.407,735.1,2.2,1.050*
2018-07-21 02:35:00,-2.291E-01,4C000000*,-702.6,969.044,90,26.1,45.0,0.407,735.1,2.2,1.050*
2018-07-21 02:36:00,-2.632E-01,4C000000*,-703.0,969.448,90,26.1,45.0,0.407,735.4,2.2,1.050*
2018-07-21 02:37:00,-2.505E-01,4C000000*,-702.6,968.235,91,26.2,44.8,0.406,735.1,2.2,1.050*
2018-07-21 02:38:00,-2.561E-01,4C000000*,-702.6,968.235,89,26.3,45.1,0.406,735.4,2.2,1.050*
2018-07-21 02:39:00,-2.574E-01,4C000000*,-703.0,968.235,90,26.3,44.9,0.406,735.1,2.2,1.050*
2018-07-21 02:40:00,-2.860E-01,4C000000*,-702.6,968.639,91,26.5,44.8,0.406,735.4,2.2,1.050*
2018-07-21 02:41:00,-2.733E-01,4C000000*,-703.0,967.831,87,26.4,45.0,0.406,735.1,2.2,1.050*
2018-07-21 02:42:00,-2.717E-01,4C000000*,-703.0,968.235,90,26.5,44.8,0.406,735.1,2.2,1.050*
2018-07-21 02:43:00,-1.936E-01,4C000000*,-702.6,966.618,89,26.5,44.9,0.406,735.1,2.2,1.050*
2018-07-21 02:44:00,-3.233E-01,4C000000*,-703.4,967.427,90,26.5,45.1,0.406,734.8,2.2,1.050*
2018-07-21 02:45:00,-2.299E-01,4C000000*,-702.6,967.022,90,26.5,44.9,0.406,735.1,2.2,1.050*
2018-07-21 02:46:00,-1.297E-01,4C000000*,-702.6,968.639,90,26.6,45.0,0.406,735.1,2.2,1.050*
2018-07-21 02:47:00,-3.408E-01,4C000000*,-703.0,967.427,89,26.5,44.7,0.407,735.1,2.2,1.050*
2018-07-21 02:48:00,-3.477E-01,4C000000*,-703.0,967.831,90,26.5,45.0,0.406,735.1,2.2,1.050*
2018-07-21 02:49:00,-3.246E-01,4C000000*,-702.6,967.831,90,26.5,45.1,0.406,735.1,2.2,1.050*
2018-07-21 02:50:00,-1.993E-01,4C000000*,-703.0,968.235,90,26.5,44.9,0.406,734.8,2.2,1.050*
2018-07-21 02:51:00,-2.396E-01,4C000000*,-703.0,967.427,90,26.5,45.1,0.406,735.4,2.2,1.050*
2018-07-21 02:52:00,-2.503E-01,4C000000*,-702.6,967.427,89,26.5,44.8,0.407,735.1,2.2,1.050*
2018-07-21 02:53:00,-3.374E-01,4C000000*,-703.0,969.044,89,26.5,44.9,0.406,735.4,2.2,1.050*
2018-07-21 02:54:00,-3.093E-01,4C000000*,-703.0,967.427,90,26.5,45.2,0.407,735.4,2.2,1.050*
2018-07-21 02:55:00,-3.513E-01,4C000000*,-703.0,967.022,90,26.4,44.8,0.406,735.1,2.2,1.050*
2018-07-21 02:56:00,-3.801E-01,4C000000*,-703.0,967.022,90,26.4,45.0,0.406,735.4,2.2,1.050*
2018-07-21 02:57:00,-2.790E-01,4C000000*,-703.0,968.235,90,26.4,44.9,0.407,735.4,2.2,1.050*
2018-07-21 02:58:00,-2.760E-01,4C000000*,-702.6,966.618,90,26.4,44.9,0.406,735.1,2.2,1.050*
2018-07-21 02:59:00,-2.810E-01,4C000000*,-703.0,967.831,90,26.4,45.1,0.406,735.4,2.2,1.050*
2018-07-21 03:00:00,-2.461E-01,4C000000*,-702.6,967.427,90,26.4,44.8,0.406,735.4,2.2,1.050*
2018-07-21 03:01:00,-1.879E-01,4C000000*,-703.0,968.235,89,26.3,44.9,0.407,735.1,2.2,1.050*
2018-07-21 03:02:00,-3.450E-01,4C000000*,-702.6,967.831,88,26.3,45.1,0.407,735.1,2.2,1.050*
2018-07-21 03:03:00,-3.351E-01,4C000000*,-703.0,969.044,90,26.2,44.8,0.406,735.1,2.2,1.050*
2018-07-21 03:04:00,-2.674E-01,4C000000*,-703.0,967.831,89,26.3,45.0,0.406,735.1,2.2,1.050*
2018-07-21 03:05:00,-2.725E-01,4C000000*,-703.0,969.852,90,26.4,45.0,0.407,735.1,2.2,1.050*
2018-07-21 03:06:00,-3.158E-01,4C000000*,-703.0,969.448,89,26.3,44.8,0.406,735.1,2.2,1.050*
2018-07-21 03:07:00,-2.929E-01,4C000000*,-703.0,967.831,91,26.3,45.0,0.407,735.4,2.2,1.050*
2018-07-21 03:08:00,-2.849E-01,4C000000*,-703.0,968.639,91,26.2,44.9,0.406,734.8,2.2,1.050*
2018-07-21 03:09:00,-2.948E-01,4C000000*,-703.0,967.831,90,26.2,44.9,0.406,735.1,2.2,1.050*
2018-07-21 03:10:00,-3.368E-01,4C000000*,-703.0,968.639,90,26.2,45.1,0.406,735.1,2.2,1.050*
2018-07-21 03:11:00,-3.373E-01,4C000000*,-703.0,967.427,90,26.2,44.8,0.406,735.1,2.2,1.050*
2018-07-21 03:12:00,-2.740E-01,4C000000*,-702.6,969.044,91,26.3,44.9,0.406,735.1,2.2,1.050*
2018-07-21 03:13:00,-2.832E-01,4C000000*,-703.0,968.639,90,26.2,45.1,0.407,735.1,2.2,1.050*
2018-07-21 03:14:00,-3.353E-01,4C000000*,-703.4,967.427,90,26.2,44.8,0.406,734.8,2.2,1.050*
2018-07-21 03:15:00,-2.517E-01,4C000000*,-702.6,967.427,91,26.3,45.0,0.406,734.8,2.2,1.050*
2018-07-21 03:16:00,-2.247E-01,4C000000*,-703.0,967.022,91,26.2,45.0,0.406,735.1,2.2,1.050*
2018-07-21 03:17:00,-3.506E-01,4C000000*,-702.6,967.427,89,26.2,44.8,0.406,734.8,2.2,1.050*
2018-07-21 03:18:00,-2.905E-01,4C000000*,-702.6,967.831,90,26.3,45.1,0.406,734.5,2.2,1.050*
2018-07-21 03:19:00,-1.557E-01,4C000000*,-703.0,967.427,89,26.2,44.9,0.406,734.8,2.2,1.050*
2018-07-21 03:20:00,-3.267E-01,4C000000*,-702.6,967.831,90,26.2,44.9,0.406,734.8,2.2,1.050*
2018-07-21 03:21:00,-3.108E-01,4C000000*,-702.6,968.235,90,26.3,45.1,0.406,734.8,2.2,1.050*
2018-07-21 03:22:00,-2.461E-01,4C000000*,-702.6,968.639,90,26.2,44.8,0.406,734.5,2.2,1.050*
2018-07-21 03:23:00,-2.449E-01,4C000000*,-703.0,967.831,89,26.2,44.9,0.406,735.1,2.2,1.050*
2018-07-21 03:24:00,-2.569E-01,4C000000*,-702.6,968.639,88,26.2,45.2,0.406,735.1,2.2,1.050*
2018-07-21 03:25:00,-3.115E-01,4C000000*,-703.0,966.618,90,26.2,44.8,0.406,735.1,2.2,1.050*
2018-07-21 03:26:00,-3.142E-01,4C000000*,-702.6,969.852,89,26.2,45.0,0.406,734.8,2.2,1.050*
2018-07-21 03:27:00,-2.840E-01,4C000000*,-703.0,968.639,91,26.2,45.0,0.406,734.8,2.2,1.050*
2018-07-21 03:28:00,-3.026E-01,4C000000*,-702.6,969.448,91,26.2,44.8,0.406,735.1,2.2,1.050*
2018-07-21 03:29:00,-2.990E-01,4C000000*,-703.0,969.044,90,26.3,45.0,0.406,735.4,2.2,1.050*
2018-07-21 03:30:00,-3.379E-01,4C000000*,-702.6,967.831,90,26.2,45.0,0.406,735.1,2.2,1.050*
2018-07-21 03:31:00,-2.502E-01,4C000000*,-702.6,968.235,89,26.1,44.9,0.406,735.4,2.2,1.050*
2018-07-21 03:32:00,-2.579E-01,4C000000*,-703.0,969.448,90,26.2,45.1,0.406,735.4,2.2,1.050*
2018-07-21 03:33:00,-2.317E-01,4C000000*,-702.6,967.831,90,26.2,44.7,0.406,734.8,2.2,1.050*
2018-07-21 03:34:00,-2.032E-01,4C000000*,-703.0,968.235,90,26.2,44.9,0.406,735.1,2.2,1.050*
2018-07-21 03:35:00,-2.587E-01,4C000000*,-703.0,968.235,90,26.2,45.1,0.406,735.1,2.2,1.050*
2018-07-21 03:36:00,-2.587E-01,4C000000*,-703.0,967.022,90,26.2,44.8,0.406,735.1,2.2,1.050*
2018-07-21 03:37:00,-3.262E-01,4C000000*,-703.0,969.852,90,26.2,45.0,0.406,735.1,2.2,1.050*
2018-07-21 03:38:00,-2.681E-01,4C000000*,-703.0,968.235,91,26.3,45.0,0.406,735.1,2.2,1.050*
2018-07-21 03:39:00,-2.757E-01,4C000000*,-702.6,967.022,91,26.2,44.7,0.406,735.4,2.2,1.050*
2018-07-21 03:40:00,-3.525E-01,4C000000*,-702.6,967.831,89,26.2,45.0,0.406,735.7,2.2,1.050*
2018-07-21 03:41:00,-2.505E-01,4C000000*,-703.0,967.427,90,26.2,45.0,0.406,735.4,2.2,1.050*
2018-07-21 03:42:00,-3.412E-01,4C000000*,-703.0,968.235,90,26.2,44.9,0.406,735.7,2.2,1.050*
2018-07-21 03:43:00,-2.577E-01,4C000000*,-703.0,967.831,90,26.2,45.1,0.406,735.7,2.2,1.050*
2018-07-21 03:44:00,-2.906E-01,4C000000*,-703.0,968.235,90,26.2,44.8,0.407,735.7,2.2,1.050*
2018-07-21 03:45:00,-3.322E-01,4C000000*,-703.0,967.831,89,26.2,44.9,0.406,736.0,2.2,1.050*
2018-07-21 03:46:00,-3.530E-01,4C000000*,-702.6,968.235,91,26.2,45.2,0.406,735.7,2.2,1.050*
2018-07-21 03:47:00,-2.570E-01,4C000000*,-703.0,967.427,90,26.2,44.8,0.406,735.1,2.2,1.050*
2018-07-21 03:48:00,-2.730E-01,4C000000*,-702.6,969.448,90,26.2,44.9,0.407,735.1,2.2,1.050*
2018-07-21 03:49:00,-3.489E-01,4C000000*,-702.6,968.639,89,26.2,45.0,0.406,735.4,2.2,1.050*
2018-07-21 03:50:00,-3.615E-01,4C000000*,-702.6,968.639,91,26.3,44.8,0.406,735.7,2.2,1.050*
2018-07-21 03:51:00,-3.614E-01,4C000000*,-702.6,969.044,87,26.3,45.0,0.406,735.4,2.2,1.050*
2018-07-21 03:52:00,-2.785E-01,4C000000*,-703.0,967.831,90,26.2,45.0,0.406,735.1,2.2,1.050*
2018-07-21 03:53:00,-2.681E-01,4C000000*,-703.0,968.235,89,26.2,44.8,0.406,735.1,2.2,1.050*
2018-07-21 03:54:00,-2.566E-01,4C000000*,-702.6,968.639,90,26.2,45.0,0.406,735.1,2.2,1.050*
2018-07-21 03:55:00,-3.843E-01,4C000000*,-702.6,967.831,89,26.1,44.9,0.406,735.7,2.2,1.050*
2018-07-21 03:56:00,-3.426E-01,4C000000*,-702.6,968.235,90,26.2,44.9,0.407,734.8,2.2,1.050*
2018-07-21 03:57:00,-3.627E-01,4C000000*,-703.0,967.831,90,26.2,45.2,0.406,735.1,2.2,1.050*
2018-07-21 03:58:00,-3.070E-01,4C000000*,-703.0,968.639,90,26.1,44.8,0.406,735.7,2.2,1.050*
2018-07-21 03:59:00,-2.904E-01,4C000000*,-702.6,968.235,89,26.2,44.9,0.407,735.4,2.2,1.050*
2018-07-21 04:00:00,-1.622E-01,4C000000*,-702.6,968.639,91,26.2,45.1,0.406,736.0,2.2,1.050*
2018-07-21 04:01:00,-3.435E-01,4C000000*,-703.0,967.831,90,26.1,44.8,0.407,735.7,2.2,1.050*
2018-07-21 04:02:00,-2.961E-01,4C000000*,-702.6,967.022,90,26.2,45.0,0.406,735.7,2.2,1.050*
2018-07-21 04:03:00,-2.810E-01,4C000000*,-702.6,967.427,89,26.2,45.0,0.406,735.7,2.2,1.050*
2018-07-21 04:04:00,-2.409E-01,4C000000*,-702.6,967.427,90,26.2,44.8,0.406,735.7,2.2,1.050*
2018-07-21 04:05:00,-3.278E-01,4C000000*,-703.0,966.618,90,26.2,45.1,0.406,735.4,2.2,1.050*
2018-07-21 04:06:00,-2.512E-01,4C000000*,-702.6,969.448,87,26.1,44.9,0.407,736.0,2.2,1.050*
2018-07-21 04:07:00,-3.240E-01,4C000000*,-702.6,968.235,91,26.2,45.1,0.407,736.0,2.2,1.050*
2018-07-21 04:08:00,-2.707E-01,4C000000*,-703.0,968.235,89,26.2,45.0,0.406,735.7,2.2,1.050*
2018-07-21 04:09:00,-2.379E-01,4C000000*,-702.6,967.022,90,26.1,44.8,0.407,735.4,2.2,1.050*
2018-07-21 04:10:00,-3.065E-01,4C000000*,-702.6,968.639,88,26.1,45.0,0.406,735.7,2.2,1.050*
2018-07-21 04:11:00,-3.412E-01,4C000000*,-702.6,967.427,90,26.1,45.0,0.407,736.0,2.2,1.050*
2018-07-21 04:12:00,-3.639E-01,4C000000*,-703.0,969.852,90,26.1,44.9,0.407,736.0,2.2,1.050*
2018-07-21 04:13:00,-2.809E-01,4C000000*,-702.6,969.852,90,26.1,45.1,0.407,736.0,2.2,1.050*
2018-07-21 04:14:00,-2.825E-01,4C000000*,-703.0,969.044,91,26.1,44.8,0.407,735.7,2.2,1.050*